Location: Banff
(51.1667°N, 115.5667°W)
Time: 12:15:17
(UTC+00:00)

Vanguard 1 Rocket - Pass Details

Date: 03 December 2020
Orbit: 655 x 4222 km, 34.3° (Epoch: 23 January)

Event Time Altitude Azimuth Distance (km) Brightness Sun altitude
Rises 14:44:48 0° 279° (W) 7,916 - -6.5°
Exits shadow 14:46:08 - 277° (W) 7,662 11.5 -6.4°
Reaches altitude 10° 14:53:47 10° 262° (W) 6,222 11.2 -5.3°
Maximum altitude 15:02:42 16° 233° (SW) 4,846 10.9 -4.1°
Drops below altitude 10° 15:09:30 10° 201° (SSW) 4,523 11.1 -3.2°
Sets 15:14:17 0° 180° (S) 4,897 11.6 -2.6°
